| time (UTC) | temp C | wind direction | speed KPH | gust KPH | rain 1hr cm | rain 24hr cm | rain mn cm | humidity % | barometer mb |
| 20260507193024 | 11 | 83 | 0.0 | 0.0 | 0.00 | 0.18 | 0.13 | 1 | 1009.2 |
| 20260507191605 | 11 | 83 | 0.0 | 0.0 | 0.00 | 0.20 | 0.13 | 1 | 1009.0 |
| 20260507190059 | 12 | 83 | 0.0 | 0.0 | 0.00 | 0.20 | 0.13 | 1 | 1008.9 |
| 20260507184632 | 12 | 83 | 0.0 | 0.0 | 0.00 | 0.20 | 0.13 | 1 | 1008.8 |
| 20260507183027 | 13 | 86 | 0.0 | 0.0 | 0.00 | 0.20 | 0.13 | 6 | 1008.8 |
| 20260507181600 | 13 | 86 | 0.0 | 0.0 | 0.00 | 0.20 | 0.13 | 21 | 1008.5 |
| 20260507180116 | 14 | 86 | 0.0 | 0.0 | 0.00 | 0.20 | 0.13 | 36 | 1008.5 |
| 20260507173036 | 16 | 86 | 0.0 | 0.0 | 0.00 | 0.20 | 0.13 | 53 | 1008.3 |
| 20260507171536 | 16 | 86 | 0.0 | 0.0 | 0.00 | 0.20 | 0.13 | 57 | 1008.3 |
| 20260507171516 | 16 | 86 | 0.0 | 0.0 | 0.00 | 0.20 | 0.13 | 57 | 1008.3 |
| 20260507170124 | 17 | 51 | 0.0 | 0.0 | 0.00 | 0.20 | 0.13 | 58 | 1008.4 |
| 20260507164515 | 17 | 80 | 0.0 | 0.0 | 0.03 | 0.20 | 0.13 | 58 | 1008.5 |
| 20260507163009 | 17 | 39 | 0.0 | 0.0 | 0.03 | 0.20 | 0.13 | 56 | 1008.6 |
| 20260507161505 | 17 | 39 | 0.0 | 0.0 | 0.03 | 0.20 | 0.13 | 58 | 1008.7 |
| 20260507160042 | 17 | 96 | 0.0 | 0.0 | 0.03 | 0.20 | 0.13 | 55 | 1008.6 |
| 20260507154656 | 17 | 66 | 0.0 | 0.0 | 0.00 | 0.18 | 0.10 | 55 | 1008.7 |
| 20260507153021 | 17 | 46 | 0.0 | 0.0 | 0.00 | 0.18 | 0.10 | 58 | 1008.8 |
| 20260507151519 | 17 | 19 | 0.0 | 0.0 | 0.00 | 0.18 | 0.10 | 58 | 1008.9 |
| 20260507150110 | 17 | 66 | 0.0 | 0.0 | 0.00 | 0.18 | 0.10 | 58 | 1009.0 |
| 20260507144534 | 17 | 49 | 0.0 | 0.0 | 0.00 | 0.18 | 0.10 | 58 | 1009.1 |
| 20260507143133 | 18 | 73 | 0.0 | 0.0 | 0.00 | 0.18 | 0.10 | 58 | 1009.0 |
| 20260507141553 | 18 | 57 | 0.0 | 0.0 | 0.00 | 0.18 | 0.10 | 58 | 1009.3 |
| 20260507140049 | 18 | 66 | 0.0 | 0.0 | 0.03 | 0.18 | 0.10 | 58 | 1009.3 |
| 20260507134543 | 18 | 216 | 0.0 | 0.0 | 0.03 | 0.18 | 0.10 | 57 | 1009.6 |
| 20260507133108 | 18 | 78 | 0.0 | 0.0 | 0.03 | 0.18 | 0.10 | 58 | 1009.6 |
| 20260507131535 | 18 | 68 | 0.0 | 0.0 | 0.03 | 0.18 | 0.10 | 58 | 1009.7 |
| 20260507130155 | 17 | 76 | 0.0 | 0.0 | 0.00 | 0.15 | 0.08 | 55 | 1009.8 |
| 20260507124559 | 17 | 85 | 0.0 | 0.0 | 0.00 | 0.15 | 0.08 | 55 | 1009.8 |
| 20260507123042 | 16 | 76 | 0.0 | 0.0 | 0.00 | 0.15 | 0.08 | 54 | 1009.9 |
| 20260507120023 | 16 | 70 | 0.0 | 0.0 | 0.00 | 0.18 | 0.08 | 53 | 1010.0 |
| 20260507113033 | 17 | 82 | 0.0 | 0.0 | 0.00 | 0.18 | 0.08 | 56 | 1010.1 |
| 20260507111606 | 17 | 82 | 0.0 | 0.0 | 0.00 | 0.23 | 0.08 | 57 | 1010.2 |
| 20260507110025 | 18 | 74 | 0.0 | 0.0 | 0.00 | 0.23 | 0.08 | 48 | 1010.2 |
| 20260507104559 | 17 | 111 | 0.0 | 0.0 | 0.00 | 0.23 | 0.08 | 52 | 1010.2 |
| 20260507103033 | 16 | 39 | 0.0 | 0.0 | 0.00 | 0.23 | 0.08 | 50 | 1010.4 |
| 20260507101604 | 16 | 77 | 0.0 | 0.0 | 0.00 | 0.33 | 0.08 | 44 | 1010.4 |
| 20260507101525 | 16 | 77 | 0.0 | 0.0 | 0.00 | 0.33 | 0.08 | 44 | 1010.4 |
| 20260507100001 | 15 | 163 | 0.0 | 0.0 | 0.03 | 0.33 | 0.08 | 54 | 1010.4 |
| 20260507094508 | 16 | 80 | 0.0 | 0.0 | 0.03 | 0.33 | 0.08 | 47 | 1010.4 |
| 20260507093121 | 16 | 164 | 0.0 | 0.0 | 0.03 | 0.33 | 0.08 | 48 | 1010.4 |
| 20260507091517 | 17 | 89 | 0.0 | 0.0 | 0.03 | 0.43 | 0.08 | 33 | 1010.3 |
| 20260507090012 | 16 | 113 | 0.0 | 0.0 | 0.03 | 0.43 | 0.05 | 37 | 1010.3 |
| 20260507084534 | 16 | 170 | 0.0 | 0.0 | 0.03 | 0.43 | 0.05 | 20 | 1010.4 |
| 20260507083059 | 15 | 82 | 0.0 | 0.0 | 0.03 | 0.43 | 0.05 | 4 | 1010.4 |
| 20260507080021 | 13 | 81 | 0.0 | 0.0 | 0.00 | 0.53 | 0.05 | 1 | 1010.3 |
| 20260507074527 | 13 | 109 | 0.0 | 0.0 | 0.00 | 0.53 | 0.05 | 1 | 1010.3 |
| 20260507073100 | 12 | 69 | 0.0 | 0.0 | 0.00 | 0.53 | 0.05 | 1 | 1010.3 |
| 20260507073030 | 12 | 69 | 0.0 | 0.0 | 0.00 | 0.53 | 0.05 | 1 | 1010.3 |
| 20260507071623 | 11 | 113 | 0.0 | 0.0 | 0.00 | 0.71 | 0.05 | 1 | 1010.2 |
| 20260507070130 | 11 | 130 | 0.0 | 0.0 | 0.00 | 0.71 | 0.05 | 1 | 1010.3 |
| 20260507064608 | 10 | 163 | 0.0 | 0.0 | 0.00 | 0.71 | 0.05 | 1 | 1010.2 |
| 20260507063004 | 10 | 163 | 0.0 | 0.0 | 0.00 | 0.71 | 0.05 | 1 | 1010.0 |
| 20260507061534 | 10 | 163 | 0.0 | 0.0 | 0.00 | 0.97 | 0.05 | 1 | 1009.9 |
| 20260507054521 | 9 | 163 | 0.0 | 0.0 | 0.03 | 0.97 | 0.05 | 1 | 1009.8 |
| 20260507053015 | 9 | 163 | 0.0 | 0.0 | 0.03 | 0.97 | 0.05 | 1 | 1009.7 |
| 20260507051625 | 8 | 163 | 0.0 | 0.0 | 0.05 | 1.14 | 0.05 | 1 | 1009.6 |
| 20260507050036 | 8 | 163 | 0.0 | 0.0 | 0.03 | 1.12 | 0.03 | 1 | 1009.5 |
| 20260507044529 | 8 | 163 | 0.0 | 0.0 | 0.03 | 1.12 | 0.03 | 1 | 1009.3 |
| 20260507043125 | 8 | 163 | 0.0 | 0.0 | 0.03 | 1.12 | 0.03 | 1 | 1009.3 |
| 20260507024543 | 8 | 163 | 0.0 | 0.0 | 0.00 | 1.19 | 1.19 | 1 | 1009.1 |
| 20260507023036 | 8 | 163 | 0.0 | 0.0 | 0.03 | 1.19 | 1.19 | 1 | 1009.0 |
| 20260507021528 | 8 | 163 | 0.0 | 0.0 | 0.03 | 1.19 | 1.19 | 1 | 1008.9 |
| 20260507020024 | 8 | 163 | 0.0 | 0.0 | 0.03 | 1.19 | 1.19 | 1 | 1008.9 |
| 20260507014530 | 8 | 163 | 0.0 | 0.0 | 0.05 | 1.19 | 1.19 | 1 | 1008.8 |
| 20260507013015 | 8 | 163 | 0.0 | 0.0 | 0.03 | 1.17 | 1.17 | 1 | 1008.8 |
| 20260507011509 | 8 | 163 | 0.0 | 0.0 | 0.03 | 1.17 | 1.17 | 1 | 1008.8 |
| 20260507010006 | 8 | 163 | 0.0 | 0.0 | 0.03 | 1.17 | 1.17 | 1 | 1008.8 |
| 20260507004600 | 8 | 163 | 0.0 | 0.0 | 0.00 | 1.17 | 1.17 | 1 | 1008.8 |
| 20260507003055 | 8 | 163 | 0.0 | 0.0 | 0.00 | 1.17 | 1.17 | 1 | 1008.9 |
| 20260507001526 | 8 | 163 | 0.0 | 0.0 | 0.00 | 1.17 | 1.17 | 1 | 1008.8 |
| 20260507000026 | 8 | 163 | 0.0 | 0.0 | 0.00 | 1.17 | 1.17 | 1 | 1008.7 |
| 20260506234513 | 8 | 163 | 0.0 | 0.0 | 0.00 | 1.17 | 1.17 | 1 | 1008.7 |
| 20260506233006 | 8 | 163 | 0.0 | 0.0 | 0.00 | 1.17 | 1.17 | 1 | 1008.6 |
| 20260506231501 | 8 | 163 | 0.0 | 0.0 | 0.00 | 1.17 | 1.17 | 1 | 1008.5 |
| 20260506230057 | 8 | 163 | 0.0 | 0.0 | 0.00 | 1.17 | 1.17 | 1 | 1008.5 |
| 20260506224533 | 8 | 163 | 0.0 | 0.0 | 0.00 | 1.17 | 1.17 | 1 | 1008.4 |
| 20260506223028 | 8 | 163 | 0.0 | 0.0 | 0.00 | 1.17 | 1.17 | 1 | 1008.3 |
| 20260506211607 | 8 | 163 | 0.0 | 0.0 | 0.00 | 1.17 | 1.17 | 1 | 1008.1 |
| 20260506210107 | 8 | 163 | 0.0 | 0.0 | 0.00 | 1.17 | 1.17 | 1 | 1008.1 |
| 20260506203017 | 8 | 163 | 0.0 | 0.0 | 0.03 | 1.17 | 1.17 | 1 | 1007.9 |
| 20260506200101 | 10 | 163 | 0.0 | 0.0 | 0.03 | 1.19 | 1.17 | 1 | 1007.6 |
| 20260506194659 | 10 | 163 | 0.0 | 0.0 | 0.03 | 1.19 | 1.17 | 1 | 1007.4 |